Weather History for KCEZ - December, 2014

Change the Weather History Date:

Saturday, December 6, 2014

  Actual Average Record
Temperature  
Mean Temperature 43 °F 30 °F  
Max Temperature 53 °F 43 °F 56 °F (2012)
Min Temperature 32 °F 16 °F -2 °F (2011)
Degree Days  
Heating Degree Days 22 35  
Month to date heating degree days 150 207  
Since 1 July heating degree days 1415 1732  
Cooling Degree Days 0 0  
Month to date cooling degree days 0 0  
Year to date cooling degree days 537 426  
Moisture  
Dew Point 35 °F    
Average Humidity 75    
Maximum Humidity 100    
Minimum Humidity 50    
Precipitation  
Precipitation 0.00 in 0.03 in 0.08 in (1996)
Month to date precipitation 0.29 0.15  
Year to date precipitation 8.50 12.88  
Sea Level Pressure  
Sea Level Pressure 30.31 in    
Wind  
Wind Speed 4 mph (East)    
Max Wind Speed 20 mph    
Max Gust Speed 24 mph    
Visibility 10 miles    
Events      
T = Trace of Precipitation, MM = Missing Value Source: NWS Daily Summary

Daily Weather History Graph

Daily Weather History Graph

Search for Another Location

Airport or City:

Trip Planner

Search our weather history database for the weather conditions in past years. The results will help you decide how hot, cold, wet, or windy it might be!

Date:

Astronomy

Dec. 06, 2014 Rise Set
Actual Time 7:14 AM MST 4:56 PM MST
Civil Twilight 6:45 AM MST 5:25 PM MST
Nautical Twilight 6:13 AM MST 5:58 PM MST
Astronomical Twilight 5:41 AM MST 6:29 PM MST
Moon 5:34 PM MST (12/6) 7:09 AM MST (12/6)
Length of Visible Light 10h 40m
Length of Day
9h 42m
Full, 100% of the Moon is Illuminated
Dec 6
Full
Dec 14
Last Quarter
Dec 21
New
Dec 28
First Quarter
Jan 4
Full

Hourly Weather History & Observations

Time (MST) Temp. Windchill Dew Point Humidity Pressure Visibility Wind Dir Wind Speed Gust Speed Precip Events Conditions
12:53 AM 34.0 °F 28.0 °F 33.1 °F 96% 30.29 in 7.0 mi ENE 6.9 mph - N/A   Clear
1:53 AM 35.1 °F 29.3 °F 33.1 °F 92% 30.30 in 10.0 mi ENE 6.9 mph - N/A   Clear
2:53 AM 33.1 °F 27.7 °F 32.0 °F 96% 30.30 in 10.0 mi NE 5.8 mph - N/A   Clear
3:53 AM 33.1 °F 30.0 °F 30.9 °F 92% 30.29 in 10.0 mi East 3.5 mph - N/A   Clear
4:53 AM 32.0 °F 28.7 °F 30.9 °F 96% 30.31 in 10.0 mi NE 3.5 mph - N/A   Clear
5:53 AM 33.1 °F - 32.0 °F 96% 30.35 in 10.0 mi Calm Calm - N/A   Partly Cloudy
6:53 AM 36.0 °F 32.1 °F 33.1 °F 89% 30.33 in 10.0 mi NE 4.6 mph - N/A   Overcast
7:53 AM 37.0 °F - 34.0 °F 89% 30.33 in 10.0 mi Calm Calm - N/A   Scattered Clouds
8:53 AM 44.1 °F 42.5 °F 35.1 °F 71% 30.33 in 10.0 mi Variable 3.5 mph - N/A   Clear
9:53 AM 48.0 °F - 34.0 °F 58% 30.33 in 10.0 mi ESE 12.7 mph 23.0 mph N/A   Clear
10:53 AM 50.0 °F - 34.0 °F 54% 30.33 in 10.0 mi SE 9.2 mph 16.1 mph N/A   Clear
11:53 AM 50.0 °F - 35.1 °F 57% 30.31 in 10.0 mi Variable 3.5 mph - N/A   Clear
12:53 PM 52.0 °F - 34.0 °F 50% 30.28 in 10.0 mi Variable 3.5 mph - N/A   Clear
1:53 PM 52.0 °F - 36.0 °F 54% 30.26 in 10.0 mi South 8.1 mph - N/A   Clear
2:53 PM 50.0 °F - 37.0 °F 61% 30.28 in 10.0 mi WSW 5.8 mph - N/A   Partly Cloudy
3:53 PM 48.9 °F - 37.9 °F 66% 30.30 in 10.0 mi SW 4.6 mph - N/A   Scattered Clouds
4:53 PM 46.0 °F - 37.0 °F 71% 30.31 in 10.0 mi Calm Calm - N/A   Partly Cloudy
5:53 PM 42.1 °F 40.2 °F 37.0 °F 82% 30.32 in 10.0 mi East 3.5 mph - N/A   Mostly Cloudy
6:53 PM 42.1 °F 40.2 °F 37.0 °F 82% 30.32 in 10.0 mi East 3.5 mph - N/A   Overcast
7:53 PM 43.0 °F 40.3 °F 37.0 °F 80% 30.32 in 10.0 mi North 4.6 mph - N/A   Overcast
8:53 PM 39.9 °F - 37.0 °F 89% 30.31 in 3.0 mi Calm Calm - N/A   Overcast
9:53 PM 39.9 °F - 37.0 °F 89% 30.30 in 10.0 mi Calm Calm - N/A   Overcast
10:53 PM 37.0 °F 32.4 °F 35.1 °F 93% 30.31 in 9.0 mi East 5.8 mph - N/A   Overcast
11:53 PM 33.1 °F 30.0 °F 32.0 °F 96% 30.32 in 10.0 mi NE 3.5 mph - N/A   Clear